Regional Weather Roundup
Issued by NWS Sioux Falls, SD

Home | Current Version | Previous Version | Graphics & Text | Print | Product List | Glossary On
Versions: 1 2 3 4 5 6 7 8 9 10 11 12 13 14 15 16 17 18 19 20 21 22 23 24 25 26 27 28 29 30 31 32 33 34 35 36 37 38 39 40 41 42 43 44 45 46 47 48 49 50
000
ASUS43 KFSD 240810
RWRFSD

WEATHER ROUNDUP FOR SE SOUTH DAKOTA/SW MINNESOTA/NW IOWA
NATIONAL WEATHER SERVICE SIOUX FALLS SD
300 AM CDT SUN JUL 24 2016

NOTE: "FAIR" INDICATES FEW OR NO CLOUDS BELOW 12,000 FEET WITH NO
SIGNIFICANT WEATHER AND OR OBSTRUCTIONS TO VISIBILITY.


SDZ038>040-050-052>070-240900-
SOUTHEAST SOUTH DAKOTA

CITY           SKY/WX    TMP DP  RH WIND       PRES   REMARKS
BROOKINGS      PTCLDY    69  67  93 NW3       29.90R
CHAMBERLAIN    PTCLDY    66  63  89 W6        29.97R
HURON          CLEAR     65  62  90 W8        29.91R
MADISON        FAIR      66  66 100 N8        29.92R
MITCHELL       CLEAR     68  65  90 W6        29.92R
SIOUX FALLS    CLEAR     72  67  84 N7        29.89R
WINNER         FAIR      68  57  68 CALM      29.99S
YANKTON        PTCLDY    73  66  78 NW10      29.90R
$$

MNZ071-072-080-081-089-090-097-098-240900-
SOUTHWEST MINNESOTA

CITY           SKY/WX    TMP DP  RH WIND       PRES   REMARKS
FAIRMONT       CLOUDY    79  52  38 W12       29.80R
JACKSON        PTCLDY    79  70  73 NW15G23   29.84R
LUVERNE        PTCLDY    73  68  83 N8        29.89R
MARSHALL       PTCLDY    73  69  87 NW12      29.85R
MONTEVIDEO     PTCLDY    72  70  94 N7        29.84R
PIPESTONE      CLEAR     73  68  83 NW6       29.90R
REDWOOD FALLS  CLEAR     76  70  82 NW14      29.80R
TRACY          PTCLDY    75  71  87 NW12G17   29.86R
WINDOM         CLEAR     75  70  83 NW13G18   29.84R
WORTHINGTON    PTCLDY    76  71  85 NW13      29.88R
$$

IAZ001>003-012>014-020>022-031-032-NEZ013-014-SDZ071-240900-
NORTHWEST IOWA

CITY           SKY/WX    TMP DP  RH WIND       PRES   REMARKS
CHEROKEE       MOCLDY    78  77  97 W6        29.84R
DENISON        CLEAR     79  75  89 CALM      29.82R
ESTHERVILLE    MOCLDY    78  76  93 W10       29.82R
LE MARS        CLEAR     79  73  83 N9        29.87R
SHELDON        PTCLDY    77  72  83 N13G18    29.85R
SIOUX CITY     CLEAR     81  72  74 N20G28    29.84R
SPENCER        PTCLDY    78  75  90 W10       29.84R
STORM LAKE     CLEAR     77  75  94 W7        29.85R
$$

ABBREVIATIONS USED IN REMARKS
   TC - TEMPERATURE IN CELSIUS
  WCI - WIND CHILL INDEX
   HX - HEAT INDEX
  VSB - VISIBILITY




USA.gov is the U.S. government's official web portal to all federal, state and local government web resources and services.